AirNav   Pilot Hours Calculator
 
 1525 users online  

05XS Johnson Memorial Airport
Wilmot, Arkansas, USA

GOING TO WILMOT?


FAA INFORMATION EFFECTIVE 14 JULY 2022

Location

FAA Identifier: 05XS
Lat/Long: 33-04-42.6000N 091-33-42.6000W
33-04.710000N 091-33.710000W
33.0785000,-91.5618333
(estimated)
Elevation: 105 ft. / 32 m (estimated)
Variation: 03E (1990)
From city: 1 mile N of WILMOT, AR
Time zone: UTC -5 (UTC -6 during Standard Time)
Zip code: 71676

Airport Operations

Airport use: Private use. Permission required prior to landing
Activation date: 06/1993
Control tower: no
ARTCC: MEMPHIS CENTER
FSS: JONESBORO FLIGHT SERVICE STATION
Attendance: UNATNDD
Segmented circle: no

Nearby radio navigation aids

VOR radial/distance  VOR name  Freq  Var
GLHr223/39.4GREENVILLE VOR/DME114.2504E

 
NDB name  Hdg/Dist  Freq  Var  ID
BASTROP037/25.332903EBQP -... --.- .--.
METCALF235/35.835901WMTQ -- - --.-

Airport Services

Runway Information

Runway 2/20

Dimensions: 2600 x 100 ft. / 792 x 30 m
Surface: turf
RUNWAY 2  RUNWAY 20
Traffic pattern: leftleft
Obstructions: 50 ft. trees, 100 ft. from runway50 ft. trees, 100 ft. from runway

Airport Ownership and Management from official FAA records

Ownership: Privately-owned
Owner: NELDA B. JOHNSON TRUST
PO BOX 295
WILMOT, AR 71676
Phone 870-473-5548
WM. L. JOHNSON FAMILY TRUST.
Manager: JAMES W. JOHNSON
PO BOX 295
WILMOT, AR 71676
Phone 870-473-5548

Airport Operational Statistics

Aircraft based on the field: 2
Single engine airplanes: 2
    

Additional Remarks

FOR CD CTC MEMPHIS ARTCC AT 901-368-8453/8449.

Instrument Procedures

There are no published instrument procedures at 05XS.

Some nearby airports with instrument procedures:

KCRT - Z M Jack Stell Field Airport (17 nm W)
M32 - Lake Village Municipal Airport (20 nm NE)
KBQP - Morehouse Memorial Airport (25 nm SW)
7M1 - Mc Gehee Municipal Airport (34 nm N)
KLLQ - Monticello Municipal Airport/Ellis Field (35 nm N)
 
Loc | Ops | Rwys | IFR | FBO | Links
Com | Nav | Svcs | Stats | Notes
Area around 05XS (Johnson Memorial Airport)
 
Road maps at: MapQuest Bing Google
 
Aerial photo
No photo
 
Sectional chart

 
Airport distance calculator
Flying to Johnson Memorial Airport? Find the distance to fly.

From to 05XS

Sunrise and sunset
Times for 10-Aug-2022
 Local
(UTC-5)
 Zulu
(UTC)
Morning civil twilight06:0011:00
Sunrise06:2711:27
Sunset19:5600:56
Evening civil twilight20:2301:23

Current date and time
Zulu (UTC)  10-Aug-2022 21:30:38
Local (UTC-5)  10-Aug-2022 16:30:38
 
METAR
KLLQ 
35nm N 
102053Z AUTO VRB03KT 10SM FEW037 SCT080 BKN095 30/22 A3003 RMK AO2 LTG DSNT NW SLP167 T03000222 56023
KGLH 
38nm NE 
102053Z 33005KT 10SM FEW060 BKN100 30/23 A3003 RMK AO2 LTG DSNT N SLP172 T03000228 56022
KMLU 
41nm SW 
102053Z 18003KT 10SM CLR 26/24 A3006 RMK AO2 SLP179 60015 T02560239 55023
TAF
KLLQ 
35nm N 
101732Z 1018/1118 VRB05KT P6SM VCTS SCT050CB FM110300 00000KT P6SM SCT100 BKN250 FM111400 08005KT P6SM VCSH SCT015 OVC030 PROB30 1114/1118 -TSRA BKN020CB
KGLH 
38nm NE 
101729Z 1018/1118 20005KT P6SM VCSH SCT015 BKN050 FM102000 17003KT P6SM OVC050 FM110800 00000KT 4SM BR OVC007 TEMPO 1109/1113 2SM BR OVC004 FM111300 10003KT P6SM SCT007 BKN015
KMLU 
41nm SW 
101720Z 1018/1118 14005KT 5SM RA VCTS OVC030CB FM102300 10004KT P6SM OVC050 FM110500 14002KT 4SM BR OVC003 FM111200 00000KT 1/2SM FG OVC003 FM111600 04002KT P6SM OVC015
NOTAMs
Click for the latest NOTAMs
NOTAMs are issued by the DoD/FAA and will open in a separate window not controlled by AirNav.

 

 
 

Would you like to see your business listed on this page?

 If your business provides an interesting product or service to pilots, flight crews, aircraft, or users of the Johnson Memorial Airport, you should consider listing it here.  To start the listing process, click on the button below
 
Add a business
 

Other Pages about Johnson Memorial Airport

Update a link
 
Copyright © AirNav, LLC. All rights reserved. Privacy Policy  Contact